Time,TemperatureF,DewpointF,PressureIn,WindDirection,WindDirectionDegrees,WindSpeedMPH,WindSpeedGustMPH,Humidity,HourlyPrecipIn,Conditions,Clouds,dailyrainin,SoftwareType,DateUTC
2013-05-04 00:00:00,50.7,26.0,30.23,WSW,237,3.6,4.0,38,0.00,,,0.00,VWS V14.00,2013-05-04 04:00:00,
2013-05-04 00:01:00,50.7,26.0,30.23,WSW,246,4.0,4.0,38,0.00,,,0.00,VWS V14.00,2013-05-04 04:01:00,
2013-05-04 00:02:00,50.7,26.0,30.23,WSW,246,3.6,4.0,38,0.00,,,0.00,VWS V14.00,2013-05-04 04:02:00,
2013-05-04 00:07:00,50.5,25.9,30.23,WSW,239,4.9,4.9,38,0.00,,,0.00,VWS V14.00,2013-05-04 04:07:00,
2013-05-04 00:12:00,50.4,25.7,30.23,WSW,251,3.1,4.0,38,0.00,,,0.00,VWS V14.00,2013-05-04 04:12:00,
2013-05-04 00:17:00,50.2,25.6,30.23,WSW,237,4.0,4.5,38,0.00,,,0.00,VWS V14.00,2013-05-04 04:17:00,
2013-05-04 00:22:00,50.0,25.4,30.23,WSW,237,2.7,2.7,38,0.00,,,0.00,VWS V14.00,2013-05-04 04:22:00,
2013-05-04 00:27:00,49.8,25.9,30.23,WSW,238,3.1,3.6,39,0.00,,,0.00,VWS V14.00,2013-05-04 04:27:00,
2013-05-04 00:32:00,49.6,25.7,30.23,WSW,237,3.6,3.6,39,0.00,,,0.00,VWS V14.00,2013-05-04 04:32:00,
2013-05-04 00:37:00,49.5,26.2,30.23,SW,234,3.1,3.6,40,0.00,,,0.00,VWS V14.00,2013-05-04 04:37:00,
2013-05-04 00:42:00,49.3,26.0,30.23,WSW,241,4.0,4.0,40,0.00,,,0.00,VWS V14.00,2013-05-04 04:42:00,
2013-05-04 00:47:00,49.1,26.4,30.23,SW,233,3.6,3.6,41,0.00,,,0.00,VWS V14.00,2013-05-04 04:47:00,
2013-05-04 00:52:00,48.9,26.3,30.23,WSW,240,4.0,4.0,41,0.00,,,0.00,VWS V14.00,2013-05-04 04:52:00,
2013-05-04 00:57:00,48.9,26.3,30.23,WSW,240,3.1,3.1,41,0.00,,,0.00,VWS V14.00,2013-05-04 04:57:00,
2013-05-04 01:02:00,48.7,26.7,30.23,WSW,239,3.6,3.6,42,0.00,,,0.00,VWS V14.00,2013-05-04 05:02:00,
2013-05-04 01:07:00,48.6,26.5,30.23,WSW,239,3.6,3.6,42,0.00,,,0.00,VWS V14.00,2013-05-04 05:07:00,
2013-05-04 01:12:00,48.4,26.9,30.23,SW,233,2.7,3.1,43,0.00,,,0.00,VWS V14.00,2013-05-04 05:12:00,
2013-05-04 01:17:00,48.2,26.8,30.23,SW,233,3.1,4.0,43,0.00,,,0.00,VWS V14.00,2013-05-04 05:17:00,
2013-05-04 01:22:00,48.2,27.3,30.23,SW,233,2.7,3.1,44,0.00,,,0.00,VWS V14.00,2013-05-04 05:22:00,
2013-05-04 01:27:00,48.0,27.7,30.23,SW,233,3.6,3.6,45,0.00,,,0.00,VWS V14.00,2013-05-04 05:27:00,
2013-05-04 01:32:00,47.8,27.5,30.23,SW,236,3.6,3.6,45,0.00,,,0.00,VWS V14.00,2013-05-04 05:32:00,
2013-05-04 01:37:00,47.8,28.1,30.23,SW,236,3.1,4.0,46,0.00,,,0.00,VWS V14.00,2013-05-04 05:37:00,
2013-05-04 01:43:00,47.8,28.6,30.23,WSW,237,4.0,4.0,47,0.00,,,0.00,VWS V14.00,2013-05-04 05:43:00,
2013-05-04 01:48:00,48.0,28.8,30.23,SW,234,4.0,4.0,47,0.00,,,0.00,VWS V14.00,2013-05-04 05:48:00,
2013-05-04 01:53:00,48.0,28.8,30.20,SW,231,3.6,3.6,47,0.00,,,0.00,VWS V14.00,2013-05-04 05:53:00,
2013-05-04 01:58:00,48.2,28.9,30.20,SW,235,3.6,4.0,47,0.00,,,0.00,VWS V14.00,2013-05-04 05:58:00,
2013-05-04 02:03:00,48.2,28.9,30.20,SW,236,4.0,4.0,47,0.00,,,0.00,VWS V14.00,2013-05-04 06:03:00,
2013-05-04 02:08:00,48.4,29.1,30.20,WSW,239,3.6,3.6,47,0.00,,,0.00,VWS V14.00,2013-05-04 06:08:00,
2013-05-04 02:13:00,48.4,29.1,30.20,SW,232,3.1,3.1,47,0.00,,,0.00,VWS V14.00,2013-05-04 06:13:00,
2013-05-04 02:18:00,48.4,29.1,30.20,SW,233,3.6,3.6,47,0.00,,,0.00,VWS V14.00,2013-05-04 06:18:00,
2013-05-04 02:23:00,48.4,29.6,30.20,WSW,237,3.1,4.0,48,0.00,,,0.00,VWS V14.00,2013-05-04 06:23:00,
2013-05-04 02:28:00,48.4,29.6,30.20,SW,234,3.6,4.0,48,0.00,,,0.00,VWS V14.00,2013-05-04 06:28:00,
2013-05-04 02:33:00,48.4,29.6,30.20,WSW,237,4.0,4.0,48,0.00,,,0.00,VWS V14.00,2013-05-04 06:33:00,
2013-05-04 02:38:00,48.4,29.6,30.20,SW,232,3.6,4.0,48,0.00,,,0.00,VWS V14.00,2013-05-04 06:38:00,
2013-05-04 02:43:00,48.2,29.5,30.20,SW,235,3.6,4.9,48,0.00,,,0.00,VWS V14.00,2013-05-04 06:43:00,
2013-05-04 02:48:00,48.2,29.5,30.20,SW,235,5.8,5.8,48,0.00,,,0.00,VWS V14.00,2013-05-04 06:48:00,
2013-05-04 02:53:00,48.0,29.8,30.20,SW,219,3.6,5.8,49,0.00,,,0.00,VWS V14.00,2013-05-04 06:53:00,
2013-05-04 02:58:00,48.0,29.8,30.20,SW,233,5.4,5.8,49,0.00,,,0.00,VWS V14.00,2013-05-04 06:58:00,
2013-05-04 03:03:00,47.8,30.1,30.20,SW,227,4.0,4.9,50,0.00,,,0.00,VWS V14.00,2013-05-04 07:03:00,
2013-05-04 03:08:00,47.8,30.1,30.20,SW,227,4.9,5.8,50,0.00,,,0.00,VWS V14.00,2013-05-04 07:08:00,
2013-05-04 03:13:00,47.7,30.0,30.20,SW,233,4.9,5.4,50,0.00,,,0.00,VWS V14.00,2013-05-04 07:13:00,
2013-05-04 03:18:00,47.7,30.4,30.20,SW,236,5.4,5.4,51,0.00,,,0.00,VWS V14.00,2013-05-04 07:18:00,
2013-05-04 03:23:00,47.5,30.3,30.20,WSW,237,5.4,5.4,51,0.00,,,0.00,VWS V14.00,2013-05-04 07:23:00,
2013-05-04 03:28:00,47.5,30.3,30.20,WSW,238,5.8,5.8,51,0.00,,,0.00,VWS V14.00,2013-05-04 07:28:00,
2013-05-04 03:33:00,47.5,30.3,30.20,SW,235,4.9,5.4,51,0.00,,,0.00,VWS V14.00,2013-05-04 07:33:00,
2013-05-04 03:38:00,47.3,30.6,30.20,SW,234,5.4,5.4,52,0.00,,,0.00,VWS V14.00,2013-05-04 07:38:00,
2013-05-04 03:43:00,47.3,30.6,30.20,SW,236,5.4,5.4,52,0.00,,,0.00,VWS V14.00,2013-05-04 07:43:00,
2013-05-04 03:48:00,47.3,30.6,30.20,SW,235,4.0,4.9,52,0.00,,,0.00,VWS V14.00,2013-05-04 07:48:00,
2013-05-04 03:54:00,47.3,30.6,30.20,WSW,237,3.1,3.1,52,0.00,,,0.00,VWS V14.00,2013-05-04 07:54:00,
2013-05-04 03:59:00,47.3,30.6,30.20,SW,232,3.1,4.0,52,0.00,,,0.00,VWS V14.00,2013-05-04 07:59:00,
2013-05-04 04:04:00,47.3,30.6,30.20,SW,232,4.9,4.9,52,0.00,,,0.00,VWS V14.00,2013-05-04 08:04:00,
2013-05-04 04:09:00,47.3,31.0,30.20,SW,235,3.1,5.8,53,0.00,,,0.00,VWS V14.00,2013-05-04 08:09:00,
2013-05-04 04:14:00,47.1,30.9,30.20,SW,235,2.7,4.0,53,0.00,,,0.00,VWS V14.00,2013-05-04 08:14:00,
2013-05-04 04:19:00,47.1,30.9,30.20,SW,234,3.1,5.4,53,0.00,,,0.00,VWS V14.00,2013-05-04 08:19:00,
2013-05-04 04:24:00,47.1,30.9,30.20,SW,227,3.6,5.4,53,0.00,,,0.00,VWS V14.00,2013-05-04 08:24:00,
2013-05-04 04:29:00,46.9,30.7,30.20,WSW,239,3.6,4.9,53,0.00,,,0.00,VWS V14.00,2013-05-04 08:29:00,
2013-05-04 04:34:00,46.9,30.7,30.20,SW,231,3.6,4.0,53,0.00,,,0.00,VWS V14.00,2013-05-04 08:34:00,
2013-05-04 04:39:00,46.9,30.7,30.20,SW,231,3.1,3.6,53,0.00,,,0.00,VWS V14.00,2013-05-04 08:39:00,
2013-05-04 04:44:00,46.9,30.7,30.20,SW,234,4.0,4.9,53,0.00,,,0.00,VWS V14.00,2013-05-04 08:44:00,
2013-05-04 04:49:00,46.9,30.7,30.20,SW,234,2.7,4.0,53,0.00,,,0.00,VWS V14.00,2013-05-04 08:49:00,
2013-05-04 04:54:00,46.8,30.5,30.20,SW,233,4.0,4.0,53,0.00,,,0.00,VWS V14.00,2013-05-04 08:54:00,
2013-05-04 04:59:00,46.8,30.5,30.20,SW,236,4.0,4.0,53,0.00,,,0.00,VWS V14.00,2013-05-04 08:59:00,
2013-05-04 05:04:00,46.8,30.5,30.20,SW,233,5.4,5.4,53,0.00,,,0.00,VWS V14.00,2013-05-04 09:04:00,
2013-05-04 05:09:00,46.6,30.4,30.20,SW,234,4.0,4.9,53,0.00,,,0.00,VWS V14.00,2013-05-04 09:09:00,
2013-05-04 05:14:00,46.8,30.5,30.20,WSW,240,4.0,4.0,53,0.00,,,0.00,VWS V14.00,2013-05-04 09:14:00,
2013-05-04 05:19:00,46.8,30.1,30.20,SW,231,4.0,4.5,52,0.00,,,0.00,VWS V14.00,2013-05-04 09:19:00,
2013-05-04 05:24:00,46.8,30.1,30.20,SW,232,4.0,4.0,52,0.00,,,0.00,VWS V14.00,2013-05-04 09:24:00,
2013-05-04 05:29:00,46.8,30.1,30.20,SW,233,2.7,4.0,52,0.00,,,0.00,VWS V14.00,2013-05-04 09:29:00,
2013-05-04 05:34:00,46.8,30.1,30.20,SW,233,4.0,4.9,52,0.00,,,0.00,VWS V14.00,2013-05-04 09:34:00,
2013-05-04 05:39:00,46.8,29.6,30.20,SW,231,5.4,5.4,51,0.00,,,0.00,VWS V14.00,2013-05-04 09:39:00,
2013-05-04 05:44:00,46.8,29.6,30.20,SW,229,2.7,4.9,51,0.00,,,0.00,VWS V14.00,2013-05-04 09:44:00,
2013-05-04 05:49:00,46.8,29.6,30.20,SW,231,4.5,4.5,51,0.00,,,0.00,VWS V14.00,2013-05-04 09:49:00,
2013-05-04 05:54:00,46.8,29.6,30.20,SW,233,3.6,4.9,51,0.00,,,0.00,VWS V14.00,2013-05-04 09:54:00,
2013-05-04 05:59:00,46.8,29.6,30.20,SW,233,3.1,5.8,51,0.00,,,0.00,VWS V14.00,2013-05-04 09:59:00,
2013-05-04 06:04:00,46.6,29.4,30.20,SW,235,3.1,5.4,51,0.00,,,0.00,VWS V14.00,2013-05-04 10:04:00,
2013-05-04 06:09:00,46.6,29.4,30.20,SW,225,3.1,4.0,51,0.00,,,0.00,VWS V14.00,2013-05-04 10:09:00,
2013-05-04 06:15:00,46.6,29.4,30.20,SW,228,4.0,4.9,51,0.00,,,0.00,VWS V14.00,2013-05-04 10:15:00,
2013-05-04 06:20:00,46.6,29.4,30.20,SW,224,3.1,4.9,51,0.00,,,0.00,VWS V14.00,2013-05-04 10:20:00,
2013-05-04 06:25:00,46.6,29.4,30.20,SW,225,3.6,3.6,51,0.00,,,0.00,VWS V14.00,2013-05-04 10:25:00,
2013-05-04 06:30:00,46.6,29.4,30.20,SW,233,4.0,4.0,51,0.00,,,0.00,VWS V14.00,2013-05-04 10:30:00,
2013-05-04 06:35:00,46.6,29.4,30.20,SW,234,4.0,4.0,51,0.00,,,0.00,VWS V14.00,2013-05-04 10:35:00,
2013-05-04 06:40:00,46.6,29.4,30.20,SW,230,4.0,4.9,51,0.00,,,0.00,VWS V14.00,2013-05-04 10:40:00,
2013-05-04 06:45:00,46.4,29.3,30.20,SW,223,3.6,3.6,51,0.00,,,0.00,VWS V14.00,2013-05-04 10:45:00,
2013-05-04 06:50:00,46.4,29.3,30.20,SW,226,4.9,4.9,51,0.00,,,0.00,VWS V14.00,2013-05-04 10:50:00,
2013-05-04 06:55:00,46.4,29.3,30.20,SW,234,4.0,4.0,51,0.00,,,0.00,VWS V14.00,2013-05-04 10:55:00,
2013-05-04 07:00:00,46.4,29.3,30.20,SW,231,3.6,5.4,51,0.00,,,0.00,VWS V14.00,2013-05-04 11:00:00,
2013-05-04 07:05:00,46.4,29.3,30.20,SW,227,4.0,4.0,51,0.00,,,0.00,VWS V14.00,2013-05-04 11:05:00,
2013-05-04 07:10:00,46.4,29.3,30.20,SW,231,2.7,5.4,51,0.00,,,0.00,VWS V14.00,2013-05-04 11:10:00,
2013-05-04 07:15:00,46.4,29.3,30.20,SW,216,2.7,4.0,51,0.00,,,0.00,VWS V14.00,2013-05-04 11:15:00,
2013-05-04 07:20:00,46.4,29.3,30.20,SW,228,3.6,4.9,51,0.00,,,0.00,VWS V14.00,2013-05-04 11:20:00,
2013-05-04 07:25:00,46.6,29.4,30.20,SW,232,3.1,5.8,51,0.00,,,0.00,VWS V14.00,2013-05-04 11:25:00,
2013-05-04 07:30:00,46.6,29.4,30.20,SW,230,2.7,4.9,51,0.00,,,0.00,VWS V14.00,2013-05-04 11:30:00,
2013-05-04 07:35:00,46.6,29.4,30.20,SW,236,3.6,4.9,51,0.00,,,0.00,VWS V14.00,2013-05-04 11:35:00,
2013-05-04 07:40:00,46.6,29.4,30.20,SW,230,3.6,3.6,51,0.00,,,0.00,VWS V14.00,2013-05-04 11:40:00,
2013-05-04 07:45:00,46.6,29.9,30.20,SW,230,2.7,5.4,52,0.00,,,0.00,VWS V14.00,2013-05-04 11:45:00,
2013-05-04 07:50:00,46.8,29.6,30.20,SW,226,3.1,5.8,51,0.00,,,0.00,VWS V14.00,2013-05-04 11:50:00,
2013-05-04 07:55:00,46.8,29.6,30.20,SW,230,3.6,3.6,51,0.00,,,0.00,VWS V14.00,2013-05-04 11:55:00,
2013-05-04 08:00:00,46.9,29.8,30.20,SW,219,2.7,3.1,51,0.00,,,0.00,VWS V14.00,2013-05-04 12:00:00,
2013-05-04 08:05:00,47.1,29.9,30.20,SW,234,2.7,5.4,51,0.00,,,0.00,VWS V14.00,2013-05-04 12:05:00,
2013-05-04 08:10:00,47.1,29.5,30.20,SW,233,2.7,3.1,50,0.00,,,0.00,VWS V14.00,2013-05-04 12:10:00,
2013-05-04 08:15:00,47.1,29.5,30.20,WSW,239,2.7,5.4,50,0.00,,,0.00,VWS V14.00,2013-05-04 12:15:00,
2013-05-04 08:21:00,47.1,29.5,30.20,SSW,210,2.2,3.6,50,0.00,,,0.00,VWS V14.00,2013-05-04 12:21:00,
2013-05-04 08:26:00,47.3,29.6,30.20,SW,225,4.0,4.0,50,0.00,,,0.00,VWS V14.00,2013-05-04 12:26:00,
2013-05-04 08:31:00,47.3,29.6,30.20,SW,236,4.9,5.8,50,0.00,,,0.00,VWS V14.00,2013-05-04 12:31:00,
2013-05-04 08:36:00,47.5,29.8,30.20,WSW,238,3.1,4.0,50,0.00,,,0.00,VWS V14.00,2013-05-04 12:36:00,
2013-05-04 08:41:00,47.7,30.0,30.20,WSW,239,3.6,4.0,50,0.00,,,0.00,VWS V14.00,2013-05-04 12:41:00,
2013-05-04 08:46:00,47.7,29.5,30.20,WSW,246,3.6,5.4,49,0.00,,,0.00,VWS V14.00,2013-05-04 12:46:00,
2013-05-04 08:51:00,47.7,29.5,30.20,WSW,238,4.9,4.9,49,0.00,,,0.00,VWS V14.00,2013-05-04 12:51:00,
2013-05-04 08:56:00,47.7,30.0,30.20,WSW,242,4.9,4.9,50,0.00,,,0.00,VWS V14.00,2013-05-04 12:56:00,
2013-05-04 09:01:00,47.7,30.0,30.20,WSW,238,3.6,4.9,50,0.00,,,0.00,VWS V14.00,2013-05-04 13:01:00,
2013-05-04 09:03:00,47.7,30.0,30.20,SW,229,2.7,3.6,50,0.00,,,0.00,VWS V14.00,2013-05-04 13:03:00,
2013-05-04 09:08:00,47.8,30.1,30.20,SW,217,4.0,4.9,50,0.00,,,0.00,VWS V14.00,2013-05-04 13:08:00,
2013-05-04 09:13:00,48.0,30.3,30.20,SW,229,0.0,4.9,50,0.00,,,0.00,VWS V14.00,2013-05-04 13:13:00,
2013-05-04 09:18:00,48.0,30.3,30.20,WSW,239,4.0,5.4,50,0.00,,,0.00,VWS V14.00,2013-05-04 13:18:00,
2013-05-04 09:23:00,47.8,30.1,30.23,SW,230,4.0,4.9,50,0.00,,,0.00,VWS V14.00,2013-05-04 13:23:00,
2013-05-04 09:28:00,47.8,30.6,30.23,WSW,237,3.6,5.4,51,0.00,,,0.00,VWS V14.00,2013-05-04 13:28:00,
2013-05-04 09:33:00,47.8,30.6,30.23,WSW,246,4.0,4.0,51,0.00,,,0.00,VWS V14.00,2013-05-04 13:33:00,
2013-05-04 09:38:00,48.0,30.8,30.23,West,269,4.9,4.9,51,0.00,,,0.00,VWS V14.00,2013-05-04 13:38:00,
2013-05-04 09:43:00,48.2,30.9,30.23,SW,235,3.6,4.0,51,0.00,,,0.00,VWS V14.00,2013-05-04 13:43:00,
2013-05-04 09:48:00,48.4,31.1,30.23,WSW,254,3.1,4.9,51,0.00,,,0.00,VWS V14.00,2013-05-04 13:48:00,
2013-05-04 09:53:00,48.7,31.0,30.20,WSW,237,3.1,4.0,50,0.00,,,0.00,VWS V14.00,2013-05-04 13:53:00,
2013-05-04 09:58:00,48.7,31.0,30.20,SW,225,3.6,4.9,50,0.00,,,0.00,VWS V14.00,2013-05-04 13:58:00,
2013-05-04 10:03:00,48.7,31.0,30.20,WSW,257,3.1,4.0,50,0.00,,,0.00,VWS V14.00,2013-05-04 14:03:00,
2013-05-04 10:08:00,48.9,31.1,30.20,SW,233,3.1,3.6,50,0.00,,,0.00,VWS V14.00,2013-05-04 14:08:00,
2013-05-04 10:13:00,49.5,31.6,30.20,SW,226,4.0,4.9,50,0.00,,,0.00,VWS V14.00,2013-05-04 14:13:00,
2013-05-04 10:18:00,50.2,31.8,30.20,WSW,246,2.7,3.6,49,0.00,,,0.00,VWS V14.00,2013-05-04 14:18:00,
2013-05-04 10:23:00,51.1,32.1,30.20,WSW,240,6.7,6.7,48,0.00,,,0.00,VWS V14.00,2013-05-04 14:23:00,
2013-05-04 10:28:00,50.9,30.9,30.20,WSW,248,4.9,5.4,46,0.00,,,0.00,VWS V14.00,2013-05-04 14:28:00,
2013-05-04 10:33:00,51.4,31.4,30.20,SW,228,3.1,4.0,46,0.00,,,0.00,VWS V14.00,2013-05-04 14:33:00,
2013-05-04 10:38:00,51.6,31.0,30.20,SW,234,3.6,4.9,45,0.00,,,0.00,VWS V14.00,2013-05-04 14:38:00,
2013-05-04 10:43:00,51.6,30.4,30.20,SW,235,3.6,5.8,44,0.00,,,0.00,VWS V14.00,2013-05-04 14:43:00,
2013-05-04 10:48:00,51.6,29.9,30.20,SW,215,3.6,4.0,43,0.00,,,0.00,VWS V14.00,2013-05-04 14:48:00,
2013-05-04 10:53:00,52.2,30.4,30.20,SW,223,2.7,4.9,43,0.00,,,0.00,VWS V14.00,2013-05-04 14:53:00,
2013-05-04 10:58:00,52.3,29.4,30.20,SW,214,3.6,5.4,41,0.00,,,0.00,VWS V14.00,2013-05-04 14:58:00,
2013-05-04 11:03:00,52.2,29.2,30.20,WSW,242,5.8,6.3,41,0.00,,,0.00,VWS V14.00,2013-05-04 15:03:00,
2013-05-04 11:08:00,52.9,29.8,30.20,WSW,242,3.6,3.6,41,0.00,,,0.00,VWS V14.00,2013-05-04 15:08:00,
2013-05-04 11:13:00,53.2,29.6,30.20,SW,230,3.6,5.4,40,0.00,,,0.00,VWS V14.00,2013-05-04 15:13:00,
2013-05-04 11:18:00,54.1,29.8,30.20,WSW,243,3.6,5.4,39,0.00,,,0.00,VWS V14.00,2013-05-04 15:18:00,
2013-05-04 11:23:00,54.7,29.6,30.20,SW,218,3.1,4.0,38,0.00,,,0.00,VWS V14.00,2013-05-04 15:23:00,
2013-05-04 11:28:00,54.9,29.8,30.20,WSW,241,2.7,4.0,38,0.00,,,0.00,VWS V14.00,2013-05-04 15:28:00,
2013-05-04 11:33:00,54.3,28.6,30.20,SW,232,3.1,4.0,37,0.00,,,0.00,VWS V14.00,2013-05-04 15:33:00,
2013-05-04 11:38:00,53.8,28.8,30.20,WSW,241,3.6,5.8,38,0.00,,,0.00,VWS V14.00,2013-05-04 15:38:00,
2013-05-04 11:43:00,53.8,29.4,30.20,WSW,240,3.6,4.0,39,0.00,,,0.00,VWS V14.00,2013-05-04 15:43:00,
2013-05-04 11:48:00,54.0,29.6,30.20,SW,232,3.1,4.0,39,0.00,,,0.00,VWS V14.00,2013-05-04 15:48:00,
2013-05-04 11:53:00,54.5,29.4,30.20,WSW,244,4.0,4.0,38,0.00,,,0.00,VWS V14.00,2013-05-04 15:53:00,
2013-05-04 11:58:00,55.0,29.9,30.20,SW,225,3.6,6.3,38,0.00,,,0.00,VWS V14.00,2013-05-04 15:58:00,
2013-05-04 12:03:00,55.4,28.9,30.20,WSW,238,2.7,5.4,36,0.00,,,0.00,VWS V14.00,2013-05-04 16:03:00,
2013-05-04 12:08:00,55.8,29.2,30.17,WSW,245,4.0,4.9,36,0.00,,,0.00,VWS V14.00,2013-05-04 16:08:00,
2013-05-04 12:13:00,55.9,29.4,30.17,SW,234,3.1,3.1,36,0.00,,,0.00,VWS V14.00,2013-05-04 16:13:00,
2013-05-04 12:18:00,55.2,28.8,30.17,SW,230,3.1,5.8,36,0.00,,,0.00,VWS V14.00,2013-05-04 16:18:00,
2013-05-04 12:23:00,54.5,28.1,30.17,SW,216,3.6,4.0,36,0.00,,,0.00,VWS V14.00,2013-05-04 16:23:00,
2013-05-04 12:28:00,54.9,29.1,30.17,SW,235,3.6,3.6,37,0.00,,,0.00,VWS V14.00,2013-05-04 16:28:00,
2013-05-04 12:33:00,55.2,28.8,30.17,SW,224,4.9,5.8,36,0.00,,,0.00,VWS V14.00,2013-05-04 16:33:00,
2013-05-04 12:38:00,55.9,29.4,30.17,WSW,253,2.7,3.6,36,0.00,,,0.00,VWS V14.00,2013-05-04 16:38:00,
2013-05-04 12:43:00,56.1,28.9,30.17,WSW,237,4.9,5.4,35,0.00,,,0.00,VWS V14.00,2013-05-04 16:43:00,
2013-05-04 12:48:00,56.7,29.3,30.17,West,268,4.0,4.9,35,0.00,,,0.00,VWS V14.00,2013-05-04 16:48:00,
2013-05-04 12:53:00,57.6,30.1,30.17,SSW,206,3.6,4.0,35,0.00,,,0.00,VWS V14.00,2013-05-04 16:53:00,
2013-05-04 12:58:00,57.0,29.0,30.17,SW,234,4.0,5.4,34,0.00,,,0.00,VWS V14.00,2013-05-04 16:58:00,
2013-05-04 13:03:00,56.8,29.5,30.17,WSW,241,4.9,5.8,35,0.00,,,0.00,VWS V14.00,2013-05-04 17:03:00,
2013-05-04 13:08:00,56.5,29.2,30.17,WSW,240,4.5,5.8,35,0.00,,,0.00,VWS V14.00,2013-05-04 17:08:00,
2013-05-04 13:13:00,56.5,29.2,30.17,SW,236,7.2,7.2,35,0.00,,,0.00,VWS V14.00,2013-05-04 17:13:00,
2013-05-04 13:18:00,57.0,29.7,30.17,WSW,243,4.0,4.0,35,0.00,,,0.00,VWS V14.00,2013-05-04 17:18:00,
2013-05-04 13:23:00,59.2,30.9,30.17,SW,235,2.7,4.0,34,0.00,,,0.00,VWS V14.00,2013-05-04 17:23:00,
2013-05-04 13:28:00,59.5,29.7,30.17,WSW,240,3.1,4.0,32,0.00,,,0.00,VWS V14.00,2013-05-04 17:28:00,
2013-05-04 13:33:00,60.4,29.7,30.17,WSW,255,2.2,3.6,31,0.00,,,0.00,VWS V14.00,2013-05-04 17:33:00,
2013-05-04 13:38:00,60.6,28.2,30.14,WSW,241,5.8,5.8,29,0.00,,,0.00,VWS V14.00,2013-05-04 17:38:00,
2013-05-04 13:43:00,60.4,28.9,30.14,SW,230,3.6,3.6,30,0.00,,,0.00,VWS V14.00,2013-05-04 17:43:00,
2013-05-04 13:48:00,60.6,28.2,30.14,SW,233,5.8,6.3,29,0.00,,,0.00,VWS V14.00,2013-05-04 17:48:00,
2013-05-04 13:53:00,60.1,27.7,30.14,SSW,209,6.3,6.3,29,0.00,,,0.00,VWS V14.00,2013-05-04 17:53:00,
2013-05-04 13:58:00,59.4,27.9,30.14,SW,234,5.4,5.4,30,0.00,,,0.00,VWS V14.00,2013-05-04 17:58:00,
2013-05-04 14:03:00,59.4,27.9,30.14,West,276,5.8,6.3,30,0.00,,,0.00,VWS V14.00,2013-05-04 18:03:00,
2013-05-04 14:08:00,60.8,30.0,30.14,WNW,288,2.7,4.0,31,0.00,,,0.00,VWS V14.00,2013-05-04 18:08:00,
2013-05-04 14:13:00,62.4,29.8,30.14,WSW,244,4.0,4.0,29,0.00,,,0.00,VWS V14.00,2013-05-04 18:13:00,
2013-05-04 14:18:00,63.1,29.5,30.14,SW,235,5.8,5.8,28,0.00,,,0.00,VWS V14.00,2013-05-04 18:18:00,
2013-05-04 14:23:00,63.5,29.0,30.14,SW,230,4.0,4.9,27,0.00,,,0.00,VWS V14.00,2013-05-04 18:23:00,
2013-05-04 14:28:00,61.5,28.1,30.14,WSW,240,5.8,6.3,28,0.00,,,0.00,VWS V14.00,2013-05-04 18:28:00,
2013-05-04 14:33:00,61.0,27.7,30.14,West,266,4.0,6.3,28,0.00,,,0.00,VWS V14.00,2013-05-04 18:33:00,
2013-05-04 14:38:00,60.4,28.1,30.14,SW,227,5.4,5.8,29,0.00,,,0.00,VWS V14.00,2013-05-04 18:38:00,
2013-05-04 14:43:00,60.4,28.1,30.14,WNW,282,6.3,8.1,29,0.00,,,0.00,VWS V14.00,2013-05-04 18:43:00,
2013-05-04 14:48:00,61.9,33.2,30.14,SW,225,4.0,4.0,34,0.00,,,0.00,VWS V14.00,2013-05-04 18:48:00,
2013-05-04 14:53:00,62.2,27.9,30.14,West,267,4.0,5.4,27,0.00,,,0.00,VWS V14.00,2013-05-04 18:53:00,
2013-05-04 14:58:00,62.8,29.2,30.14,WSW,256,4.0,4.0,28,0.00,,,0.00,VWS V14.00,2013-05-04 18:58:00,
2013-05-04 15:03:00,63.7,29.1,30.14,West,262,3.1,4.0,27,0.00,,,0.00,VWS V14.00,2013-05-04 19:03:00,
2013-05-04 15:08:00,63.7,29.1,30.11,NW,309,3.1,4.0,27,0.00,,,0.00,VWS V14.00,2013-05-04 19:08:00,
2013-05-04 15:13:00,61.7,27.4,30.11,WSW,237,5.8,6.3,27,0.00,,,0.00,VWS V14.00,2013-05-04 19:13:00,
2013-05-04 15:18:00,61.5,28.1,30.11,SW,234,4.9,5.8,28,0.00,,,0.00,VWS V14.00,2013-05-04 19:18:00,
2013-05-04 15:23:00,62.8,29.2,30.11,WSW,245,4.0,4.0,28,0.00,,,0.00,VWS V14.00,2013-05-04 19:23:00,
2013-05-04 15:28:00,63.1,28.6,30.11,SW,234,4.9,7.2,27,0.00,,,0.00,VWS V14.00,2013-05-04 19:28:00,
2013-05-04 15:33:00,63.1,29.5,30.11,WSW,246,5.4,6.3,28,0.00,,,0.00,VWS V14.00,2013-05-04 19:33:00,
2013-05-04 15:38:00,63.1,29.5,30.11,West,260,4.0,5.8,28,0.00,,,0.00,VWS V14.00,2013-05-04 19:38:00,
2013-05-04 15:43:00,61.3,27.1,30.11,SW,233,6.3,6.3,27,0.00,,,0.00,VWS V14.00,2013-05-04 19:43:00,
2013-05-04 15:48:00,61.0,28.5,30.11,SW,235,6.3,6.3,29,0.00,,,0.00,VWS V14.00,2013-05-04 19:48:00,
2013-05-04 15:53:00,60.3,28.7,30.11,WSW,251,3.1,6.3,30,0.00,,,0.00,VWS V14.00,2013-05-04 19:53:00,
2013-05-04 15:58:00,60.6,29.0,30.11,SW,232,5.4,5.4,30,0.00,,,0.00,VWS V14.00,2013-05-04 19:58:00,
2013-05-04 16:03:00,60.3,29.5,30.11,WSW,240,4.0,4.9,31,0.00,,,0.00,VWS V14.00,2013-05-04 20:03:00,
2013-05-04 16:08:00,59.2,29.4,30.11,WSW,241,7.6,7.6,32,0.00,,,0.00,VWS V14.00,2013-05-04 20:08:00,
2013-05-04 16:13:00,59.0,30.7,30.11,West,263,2.7,5.4,34,0.00,,,0.00,VWS V14.00,2013-05-04 20:13:00,
2013-05-04 16:18:00,59.2,30.9,30.11,SW,228,8.1,8.1,34,0.00,,,0.00,VWS V14.00,2013-05-04 20:18:00,
2013-05-04 16:23:00,59.2,30.9,30.11,SW,235,5.8,5.8,34,0.00,,,0.00,VWS V14.00,2013-05-04 20:23:00,
2013-05-04 16:28:00,59.9,31.5,30.11,SW,232,5.4,5.4,34,0.00,,,0.00,VWS V14.00,2013-05-04 20:28:00,
2013-05-04 16:33:00,59.2,30.9,30.11,WSW,248,4.9,7.2,34,0.00,,,0.00,VWS V14.00,2013-05-04 20:33:00,
2013-05-04 16:38:00,58.5,30.9,30.11,WSW,240,3.6,6.3,35,0.00,,,0.00,VWS V14.00,2013-05-04 20:38:00,
2013-05-04 16:43:00,58.5,31.6,30.11,WSW,241,3.1,4.0,36,0.00,,,0.00,VWS V14.00,2013-05-04 20:43:00,
2013-05-04 16:48:00,57.9,31.1,30.11,SW,231,3.1,4.0,36,0.00,,,0.00,VWS V14.00,2013-05-04 20:48:00,
2013-05-04 16:53:00,57.6,30.8,30.11,SW,231,2.7,3.1,36,0.00,,,0.00,VWS V14.00,2013-05-04 20:53:00,
2013-05-04 16:58:00,57.2,31.2,30.11,SW,235,3.6,4.0,37,0.00,,,0.00,VWS V14.00,2013-05-04 20:58:00,
2013-05-04 17:03:00,57.2,31.2,30.11,WSW,239,4.0,4.0,37,0.00,,,0.00,VWS V14.00,2013-05-04 21:03:00,
2013-05-04 17:08:00,57.0,31.7,30.11,SSW,208,2.7,3.6,38,0.00,,,0.00,VWS V14.00,2013-05-04 21:08:00,
2013-05-04 17:13:00,57.2,31.8,30.11,WSW,240,3.6,3.6,38,0.00,,,0.00,VWS V14.00,2013-05-04 21:13:00,
2013-05-04 17:18:00,57.2,31.8,30.11,SW,224,3.1,3.1,38,0.00,,,0.00,VWS V14.00,2013-05-04 21:18:00,
2013-05-04 17:23:00,57.0,31.7,30.11,SW,234,3.6,3.6,38,0.00,,,0.00,VWS V14.00,2013-05-04 21:23:00,
2013-05-04 17:28:00,56.8,32.2,30.11,SW,235,3.1,4.0,39,0.00,,,0.00,VWS V14.00,2013-05-04 21:28:00,
2013-05-04 17:33:00,56.7,32.0,30.11,West,260,3.1,3.6,39,0.00,,,0.00,VWS V14.00,2013-05-04 21:33:00,
2013-05-04 17:38:00,56.5,31.8,30.11,SW,229,3.1,4.5,39,0.00,,,0.00,VWS V14.00,2013-05-04 21:38:00,
2013-05-04 17:44:00,56.1,32.2,30.11,SW,233,2.7,3.6,40,0.00,,,0.00,VWS V14.00,2013-05-04 21:44:00,
2013-05-04 17:48:00,56.1,32.8,30.11,SW,232,3.1,4.0,41,0.00,,,0.00,VWS V14.00,2013-05-04 21:48:00,
2013-05-04 17:53:00,56.1,32.8,30.11,SW,236,4.9,4.9,41,0.00,,,0.00,VWS V14.00,2013-05-04 21:53:00,
2013-05-04 17:58:00,56.1,32.8,30.11,SW,235,3.6,5.4,41,0.00,,,0.00,VWS V14.00,2013-05-04 21:58:00,
2013-05-04 18:03:00,55.8,32.4,30.11,WSW,237,4.0,5.8,41,0.00,,,0.00,VWS V14.00,2013-05-04 22:03:00,
2013-05-04 18:08:00,55.6,33.5,30.11,SW,216,3.6,4.0,43,0.00,,,0.00,VWS V14.00,2013-05-04 22:08:00,
2013-05-04 18:13:00,55.6,33.5,30.11,SW,231,4.0,4.9,43,0.00,,,0.00,VWS V14.00,2013-05-04 22:13:00,
2013-05-04 18:18:00,55.6,34.0,30.11,WSW,239,3.6,4.0,44,0.00,,,0.00,VWS V14.00,2013-05-04 22:18:00,
2013-05-04 18:23:00,55.6,34.0,30.11,WSW,240,3.1,4.0,44,0.00,,,0.00,VWS V14.00,2013-05-04 22:23:00,
2013-05-04 18:28:00,55.6,34.0,30.11,SW,236,4.5,4.5,44,0.00,,,0.00,VWS V14.00,2013-05-04 22:28:00,
2013-05-04 18:33:00,55.8,34.8,30.11,WSW,239,0.0,3.6,45,0.00,,,0.00,VWS V14.00,2013-05-04 22:33:00,
2013-05-04 18:38:00,55.9,34.9,30.11,SW,235,3.6,4.0,45,0.00,,,0.00,VWS V14.00,2013-05-04 22:38:00,
2013-05-04 18:43:00,56.1,34.5,30.11,WSW,250,3.1,4.5,44,0.00,,,0.00,VWS V14.00,2013-05-04 22:43:00,
2013-05-04 18:48:00,56.1,35.1,30.11,WSW,240,0.0,3.6,45,0.00,,,0.00,VWS V14.00,2013-05-04 22:48:00,
2013-05-04 18:53:00,56.1,35.1,30.11,WSW,237,2.7,3.6,45,0.00,,,0.00,VWS V14.00,2013-05-04 22:53:00,
2013-05-04 18:59:00,56.1,35.1,30.11,SSW,207,2.7,4.9,45,0.00,,,0.00,VWS V14.00,2013-05-04 22:59:00,
2013-05-04 19:04:00,55.9,34.9,30.11,SW,233,2.7,4.9,45,0.00,,,0.00,VWS V14.00,2013-05-04 23:04:00,
2013-05-04 19:09:00,55.9,35.5,30.11,SW,236,2.7,2.7,46,0.00,,,0.00,VWS V14.00,2013-05-04 23:09:00,
2013-05-04 19:14:00,55.9,35.5,30.11,SW,235,3.1,3.6,46,0.00,,,0.00,VWS V14.00,2013-05-04 23:14:00,
2013-05-04 19:19:00,55.9,35.5,30.11,SW,232,2.2,3.6,46,0.00,,,0.00,VWS V14.00,2013-05-04 23:19:00,
2013-05-04 19:24:00,55.8,35.3,30.11,SW,231,3.1,3.6,46,0.00,,,0.00,VWS V14.00,2013-05-04 23:24:00,
2013-05-04 19:29:00,55.6,35.7,30.11,SW,231,3.1,3.1,47,0.00,,,0.00,VWS V14.00,2013-05-04 23:29:00,
2013-05-04 19:34:00,55.4,35.5,30.11,SW,233,2.7,3.1,47,0.00,,,0.00,VWS V14.00,2013-05-04 23:34:00,
2013-05-04 19:39:00,55.4,35.5,30.11,SW,235,3.1,4.0,47,0.00,,,0.00,VWS V14.00,2013-05-04 23:39:00,
2013-05-04 19:44:00,55.2,35.9,30.11,SW,233,3.6,4.0,48,0.00,,,0.00,VWS V14.00,2013-05-04 23:44:00,
2013-05-04 19:49:00,55.2,36.4,30.11,SW,232,2.7,3.6,49,0.00,,,0.00,VWS V14.00,2013-05-04 23:49:00,
2013-05-04 19:54:00,55.2,36.4,30.11,SW,232,0.0,3.1,49,0.00,,,0.00,VWS V14.00,2013-05-04 23:54:00,
2013-05-04 19:59:00,55.2,36.4,30.11,SW,225,2.7,3.1,49,0.00,,,0.00,VWS V14.00,2013-05-04 23:59:00,
2013-05-04 20:04:00,55.0,36.2,30.11,WSW,237,2.2,3.1,49,0.00,,,0.00,VWS V14.00,2013-05-05 00:04:00,
2013-05-04 20:09:00,55.0,36.8,30.11,SW,235,2.7,4.0,50,0.00,,,0.00,VWS V14.00,2013-05-05 00:09:00,
2013-05-04 20:14:00,54.9,36.6,30.11,SW,236,2.7,3.1,50,0.00,,,0.00,VWS V14.00,2013-05-05 00:14:00,
2013-05-04 20:19:00,54.9,36.6,30.11,SW,235,3.1,3.1,50,0.00,,,0.00,VWS V14.00,2013-05-05 00:19:00,
2013-05-04 20:24:00,54.9,37.1,30.11,SW,232,2.2,3.1,51,0.00,,,0.00,VWS V14.00,2013-05-05 00:24:00,
2013-05-04 20:29:00,54.7,36.9,30.11,SW,234,3.1,3.6,51,0.00,,,0.00,VWS V14.00,2013-05-05 00:29:00,
2013-05-04 20:34:00,54.7,36.9,30.11,WSW,238,3.1,4.0,51,0.00,,,0.00,VWS V14.00,2013-05-05 00:34:00,
2013-05-04 20:39:00,54.7,37.4,30.11,WSW,238,4.0,4.0,52,0.00,,,0.00,VWS V14.00,2013-05-05 00:39:00,
2013-05-04 20:44:00,54.5,37.2,30.11,SW,234,2.7,2.7,52,0.00,,,0.00,VWS V14.00,2013-05-05 00:44:00,
2013-05-04 20:49:00,54.5,37.2,30.11,SW,234,0.0,0.0,52,0.00,,,0.00,VWS V14.00,2013-05-05 00:49:00,
2013-05-04 20:54:00,54.5,37.2,30.11,SW,234,2.7,4.0,52,0.00,,,0.00,VWS V14.00,2013-05-05 00:54:00,
2013-05-04 20:59:00,54.5,37.7,30.11,SW,232,4.0,4.0,53,0.00,,,0.00,VWS V14.00,2013-05-05 00:59:00,
2013-05-04 21:04:00,54.5,37.7,30.11,WSW,238,4.0,4.0,53,0.00,,,0.00,VWS V14.00,2013-05-05 01:04:00,
2013-05-04 21:09:00,54.3,37.6,30.11,SW,233,2.7,4.0,53,0.00,,,0.00,VWS V14.00,2013-05-05 01:09:00,
2013-05-04 21:14:00,54.3,37.6,30.11,SW,228,2.2,3.1,53,0.00,,,0.00,VWS V14.00,2013-05-05 01:14:00,
2013-05-04 21:19:00,54.3,38.0,30.11,SW,233,3.1,3.6,54,0.00,,,0.00,VWS V14.00,2013-05-05 01:19:00,
2013-05-04 21:24:00,54.3,38.0,30.11,SW,234,2.7,4.0,54,0.00,,,0.00,VWS V14.00,2013-05-05 01:24:00,
2013-05-04 21:29:00,54.3,38.0,30.11,SW,232,3.6,3.6,54,0.00,,,0.00,VWS V14.00,2013-05-05 01:29:00,
2013-05-04 21:34:00,54.3,38.0,30.11,SW,227,2.7,4.0,54,0.00,,,0.00,VWS V14.00,2013-05-05 01:34:00,
2013-05-04 21:39:00,54.3,38.0,30.11,SW,233,3.6,4.0,54,0.00,,,0.00,VWS V14.00,2013-05-05 01:39:00,
2013-05-04 21:44:00,54.3,38.0,30.11,SW,221,4.0,4.0,54,0.00,,,0.00,VWS V14.00,2013-05-05 01:44:00,
2013-05-04 21:49:00,54.3,38.0,30.11,SW,225,3.1,4.0,54,0.00,,,0.00,VWS V14.00,2013-05-05 01:49:00,
2013-05-04 21:54:00,54.3,38.0,30.11,SW,236,3.6,3.6,54,0.00,,,0.00,VWS V14.00,2013-05-05 01:54:00,
2013-05-04 21:59:00,54.3,38.5,30.11,SW,233,3.1,3.1,55,0.00,,,0.00,VWS V14.00,2013-05-05 01:59:00,
2013-05-04 22:04:00,54.3,38.5,30.11,SW,236,2.2,3.6,55,0.00,,,0.00,VWS V14.00,2013-05-05 02:04:00,
2013-05-04 22:09:00,54.1,38.3,30.11,SW,232,3.6,4.0,55,0.00,,,0.00,VWS V14.00,2013-05-05 02:09:00,
2013-05-04 22:14:00,54.1,38.3,30.11,SW,222,3.6,4.0,55,0.00,,,0.00,VWS V14.00,2013-05-05 02:14:00,
2013-05-04 22:19:00,54.1,38.3,30.14,WSW,239,2.7,3.6,55,0.00,,,0.00,VWS V14.00,2013-05-05 02:19:00,
2013-05-04 22:24:00,54.1,38.8,30.14,SW,235,3.1,4.0,56,0.00,,,0.00,VWS V14.00,2013-05-05 02:24:00,
2013-05-04 22:29:00,54.1,38.8,30.14,SW,230,3.1,3.6,56,0.00,,,0.00,VWS V14.00,2013-05-05 02:29:00,
2013-05-04 22:34:00,54.1,38.8,30.14,SW,232,3.6,3.6,56,0.00,,,0.00,VWS V14.00,2013-05-05 02:34:00,
2013-05-04 22:39:00,54.1,38.8,30.14,WSW,237,2.2,3.6,56,0.00,,,0.00,VWS V14.00,2013-05-05 02:39:00,
2013-05-04 22:44:00,54.0,39.1,30.14,WSW,238,2.7,3.6,57,0.00,,,0.00,VWS V14.00,2013-05-05 02:44:00,
2013-05-04 22:49:00,54.0,39.1,30.14,WSW,238,2.7,2.7,57,0.00,,,0.00,VWS V14.00,2013-05-05 02:49:00,
2013-05-04 22:54:00,54.0,39.1,30.14,WSW,238,0.0,0.0,57,0.00,,,0.00,VWS V14.00,2013-05-05 02:54:00,
2013-05-04 22:59:00,54.0,39.1,30.14,SW,229,3.1,4.0,57,0.00,,,0.00,VWS V14.00,2013-05-05 02:59:00,
2013-05-04 23:04:00,54.0,39.1,30.11,WSW,237,3.6,3.6,57,0.00,,,0.00,VWS V14.00,2013-05-05 03:04:00,
2013-05-04 23:09:00,53.8,39.4,30.11,SW,228,3.1,4.0,58,0.00,,,0.00,VWS V14.00,2013-05-05 03:09:00,
2013-05-04 23:14:00,53.8,39.4,30.11,SW,229,4.5,5.4,58,0.00,,,0.00,VWS V14.00,2013-05-05 03:14:00,
2013-05-04 23:19:00,53.8,39.4,30.11,SW,236,2.7,4.9,58,0.00,,,0.00,VWS V14.00,2013-05-05 03:19:00,
2013-05-04 23:24:00,53.8,39.4,30.11,WSW,238,3.6,5.4,58,0.00,,,0.00,VWS V14.00,2013-05-05 03:24:00,
2013-05-04 23:29:00,53.6,38.8,30.11,WSW,240,5.4,5.4,57,0.00,,,0.00,VWS V14.00,2013-05-05 03:29:00,
2013-05-04 23:34:00,53.6,38.3,30.11,WSW,241,5.4,5.8,56,0.00,,,0.00,VWS V14.00,2013-05-05 03:34:00,
2013-05-04 23:40:00,53.6,37.8,30.11,SW,232,4.9,4.9,55,0.00,,,0.00,VWS V14.00,2013-05-05 03:40:00,
2013-05-04 23:45:00,53.4,37.7,30.11,WSW,240,5.8,5.8,55,0.00,,,0.00,VWS V14.00,2013-05-05 03:45:00,
2013-05-04 23:50:00,53.4,37.2,30.11,SW,233,4.5,4.5,54,0.00,,,0.00,VWS V14.00,2013-05-05 03:50:00,
2013-05-04 23:55:00,53.4,36.7,30.11,SW,221,3.1,3.6,53,0.00,,,0.00,VWS V14.00,2013-05-05 03:55:00,